This demonstration page uses our WeatherBlox Daily Observations layout. Learn more.

Left ArrowRight Arrow

40.92501, -98.34201

Hourly Observations for September 6, 2022

Temp ( °F °C ) Dew Point ( °F °C ) Humidity (%) Winds ( mph kmh ) Pressure ( in mb ) Visibility ( mi km ) Precip ( " mm )
12:53 am 00:53 Clear 70 21.1 60 15.6 71 71 S 14 22 29.98 1015 10 16 0.00 0.00
12:55 am 00:55 Clear 90 32 30 -1 12 12 W 3 6 29.73 1007 7 11 0.00 0.00
1:53 am 01:53 Clear 69 20.6 61 16.1 75 75 S 15 24 29.98 1015 10 16 0.00 0.00
2:53 am 02:53 Clear 69 20.6 61 16.1 75 75 S 13 20 29.98 1015 10 16 0.00 0.00
3:53 am 03:53 Clear 67 19.4 61 16.1 81 81 S 10 17 29.99 1016 10 16 0.00 0.00
4:53 am 04:53 Clear 66 18.9 61 16.1 84 84 S 8 13 30.01 1016 10 16 0.00 0.00
5:53 am 05:53 Clear 64 17.8 61 16.1 90 90 S 9 15 30.01 1016 10 16 0.00 0.00
6:53 am 06:53 Clear 64 17.8 60 15.6 87 87 S 9 15 30.01 1016 10 16 0.00 0.00
7:53 am 07:53 Sunny 65 18.3 61 16.1 87 87 S 9 15 30.03 1017 10 16 0.00 0.00
8:53 am 08:53 Sunny 69 20.6 62 16.7 78 78 S 10 17 30.02 1017 10 16 0.00 0.00
9:53 am 09:53 Sunny 75 23.9 61 16.1 62 62 SSW 17 28 30.01 1016 10 16 0.00 0.00
10:53 am 10:53 Sunny 80 26.7 60 15.6 51 51 SW 14 22 30.03 1017 10 16 0.00 0.00
11:53 am 11:53 Sunny 84 28.9 61 16.1 46 46 SW 10 17 30.03 1017 10 16 0.00 0.00
12:53 pm 12:53 Sunny 87 30.6 58 14.4 37 37 W 5 7 30.02 1017 10 16 0.00 0.00
1:53 pm 13:53 Sunny 90 32.2 59 15 35 35 VRB 6 9 30.02 1017 10 16 0.00 0.00
2:53 pm 14:53 Sunny 90 32.2 58 14.4 34 34 VRB 3 6 30.02 1017 10 16 0.00 0.00
3:53 pm 15:53 Sunny 91 32.8 59 15 34 34 S 3 6 30.01 1016 10 16 0.00 0.00
4:53 pm 16:53 Sunny 93 33.9 60 15.6 34 34 VRB 6 9 30.01 1016 10 16 0.00 0.00
5:53 pm 17:53 Sunny 92 33.3 60 15.6 35 35 VRB 6 9 30.02 1017 10 16 0.00 0.00
6:53 pm 18:53 Sunny 90 32.2 60 15.6 37 37 NNE 6 9 30.04 1017 10 16 0.00 0.00
7:53 pm 19:53 Sunny 80 26.7 62 16.7 54 54 NE 5 7 30.05 1018 10 16 0.00 0.00
8:53 pm 20:53 Clear 74 23.3 62 16.7 66 66 NE 5 7 30.08 1019 10 16 0.00 0.00
9:53 pm 21:53 Clear 70 21.1 62 16.7 76 76 NNE 8 13 30.11 1020 10 16 0.00 0.00
10:53 pm 22:53 Clear 69 20.6 62 16.7 78 78 NNE 5 7 30.11 1020 10 16 0.00 0.00
11:53 pm 23:53 Clear 65 18.3 60 15.6 84 84 NNE 5 7 30.12 1020 10 16 0.00 0.00

Powered by AerisWeather